Regional Weather Roundup
Issued by NWS Kansas City/Pleasant Hill, MO

Home | Current Version | Previous Version | Text Only | Print | Product List | Glossary On
Versions: 1 2 3 4 5 6 7 8 9 10 11 12 13 14 15 16 17 18 19 20 21 22 23 24 25 26 27 28 29 30 31 32 33 34 35 36 37 38 39 40 41 42 43 44 45 46 47 48 49 50
054
ASUS43 KEAX 101210
RWREAX

WEATHER ROUNDUP FOR EASTERN KANSAS AND NORTHWEST MISSOURI
NATIONAL WEATHER SERVICE KANSAS CITY/PLEASANT HILL MO
600 AM CST WED FEB 10 2016

KSZ040-057-103>105-MOZ028-029-037-043-101300-
...KANSAS CITY METROPOLITAN AREA...

CITY           SKY/WX    TMP DP  RH WIND       PRES   REMARKS
K.C. INTL      CLOUDY    23  15  71 SW6       30.15S WCI  16
6HR MIN TEMP:  17; 6HR MAX TEMP:  23;

K.C. DOWNTOWN  CLOUDY    26  14  60 SW3       30.18S
6HR MIN TEMP:  20; 6HR MAX TEMP:  26;

LEES SUMMIT    CLOUDY    23  13  65 W3        30.17S
6HR MIN TEMP:  20; 6HR MAX TEMP:  23;

OLATHE - IXD   CLOUDY    23  13  65 SW5       30.17F WCI  17
6HR MIN TEMP:  17; 6HR MAX TEMP:  23;

OLATHE - OJC   CLOUDY    22  13  68 CALM      30.16F
6HR MIN TEMP:  18; 6HR MAX TEMP:  22;

LAWRENCE       CLOUDY    24  16  71 NE5       30.19S WCI  18

$$

MOZ001>008-011>017-020>025-030>033-038>040-044>046-053-054-101300-
...NORTHERN AND CENTRAL MISSOURI...

CITY           SKY/WX    TMP DP  RH WIND       PRES   REMARKS
ST. JOSEPH     CLOUDY    24  15  68 S8        30.15S WCI  15
6HR MIN TEMP:  16; 6HR MAX TEMP:  24;

MOSBY          CLOUDY    25  16  68 CALM      30.19R
WARRENSBURG    MOCLDY    21  14  73 CALM      30.17F
WHITEMAN AFB   CLOUDY    20  12  73 SW6       30.16F WCI  12
6HR MIN TEMP:  17; 6HR MAX TEMP:  21;

CLINTON          N/A     23  16  74 CALM      30.19F
SEDALIA        MOCLDY    18  10  71 CALM      30.18F
6HR MIN TEMP:  17; 6HR MAX TEMP:  20;

WARSAW         NOT AVBL
CHILLICOTHE      N/A     17  13  84 S3        30.17S
6HR MIN TEMP:  17; 6HR MAX TEMP:  21;

KIRKSVILLE     PTCLDY    14   7  73 W7        30.14F WCI   4
6HR MIN TEMP:  10; 6HR MAX TEMP:  15;


$$

MOZ041-047>049-056>058-063>065-088>090-097-101300-
...EASTERN AND SOUTHERN MISSOURI...

CITY           SKY/WX    TMP DP  RH WIND       PRES   REMARKS
ST. LOUIS INTL CLOUDY    16   6  65 NW10      30.16F WCI   4
6HR MIN TEMP:  16; 6HR MAX TEMP:  20; 6HR PCP: TRACE;

SPIRIT OF STL  CLEAR     14   6  70 W6        30.17F WCI   5
COLUMBIA       CLEAR     16   8  71 NW7       30.18R WCI   6
JEFFERSON CITY CLEAR     17   9  70 NW3       30.21R
ROLLA          CLEAR     14   8  77 W5        30.14S WCI   6
OSAGE BEACH    CLEAR     18   7  62 W5        30.18F WCI  11
SPRINGFIELD    CLOUDY    20   9  62 W5        30.18F WCI  13
BRANSON        CLEAR     23   9  54 NW3       30.23S
JOPLIN         CLEAR     20  11  68 SW5       30.25S WCI  13
WEST PLAINS    CLEAR     18   6  59 NW5       30.19R WCI  11

$$

IAZ060-094-KSZ022-034>040-054-083-096-NEZ052-066-093-101300-
...KANSAS...SOUTHEAST NEBRASKA AND IOWA...

CITY           SKY/WX    TMP DP  RH WIND       PRES   REMARKS
TOPEKA         CLOUDY    28  13  53 SW7       30.16F WCI  21
6HR MIN TEMP:  21; 6HR MAX TEMP:  28;

MANHATTAN      PTCLDY    27  13  55 SW20      30.08F WCI  13
EMPORIA        CLOUDY    24  14  65 S9        30.16F WCI  14
CHANUTE        CLOUDY    24  14  65 S6        30.23F WCI  17
WICHITA        PTCLDY    26  15  63 S12       30.16F WCI  16
OMAHA          FLURRIES  24  18  77 SE10      30.07F WCI  14
LINCOLN        CLOUDY    28  18  66 S9        30.05F WCI  19
FALLS CITY     CLOUDY    25  18  74 S6        30.11F WCI  18
LAMONI         CLOUDY    19  13  77 SW5       30.11S WCI  12
DES MOINES     CLOUDY    16   7  67 N3        30.13S

$$





USA.gov is the U.S. government's official web portal to all federal, state and local government web resources and services.